#timestamp,LO_Frequency,Hit,StdDev 
1654387215.7,286047002.2,N
1654387235.6,286047001.6,N
1654387255.4,286047002.8,N
1654387275.2,286047002.2,N
1654387295.1,286047002.0,N
1654387296.0,286047002.0,N
1654387315.8,286047002.7,N
1654387335.7,286046999.8,N
1654387355.5,286046999.9,N
1654387375.3,286047002.8,N
1654387395.2,286047000.1,N
1654387415.0,286046998.5,N
1654387415.9,286046998.5,N
1654387435.8,286046998.5,N
1654387455.6,286047000.7,N
1654387475.4,286047000.9,N
1654387495.3,286047002.1,N
1654387515.1,286047001.5,N
1654387535.8,286046999.8,N
1654387555.7,286046999.8,N
1654387575.5,286046999.9,N
1654387595.4,286047002.4,N
1654387615.2,286047002.4,N
1654387635.0,286047001.6,N
1654387635.9,286047001.6,N
1654387655.8,286047000.1,N
1654387675.6,286047000.8,N
1654387695.5,286047000.3,N
1654387715.3,286046999.9,N
1654387735.1,286047000.9,N
1654387755.9,286047000.9,N
1654387775.7,286047000.6,N
1654387795.5,286047002.8,N
1654387815.4,286047002.6,N
1654387835.2,286047002.0,N
1654387855.1,286047000.0,N
1654387856.0,286047000.0,N
1654387875.8,286047001.1,N
1654387895.6,286047000.8,N
1654387915.5,286047000.0,N
1654387935.3,286047000.2,N
1654387955.1,286047000.0,N
1654387975.9,286047000.9,N
1654387995.7,286047001.2,N
1654388015.6,286046998.1,N
1654388035.4,286046998.7,N
1654388055.2,286046998.7,N
1654388075.1,286046998.7,N
1654388076.0,286046998.7,N
1654388095.8,286046996.8,N
1654388115.6,286046996.6,N
1654388135.5,286046997.4,N
1654388155.3,286046996.9,N
1654388175.2,286047000.8,N
1654388195.9,286047001.2,N
1654388215.7,286047000.0,N
1654388235.6,286047000.8,N
1654388255.4,286047001.2,N
1654388275.2,286047000.7,N
1654388295.1,286047000.9,N
1654388296.0,286047000.9,N
1654388315.8,286047000.0,N
1654388335.7,286047000.6,N
1654388355.5,286047000.8,N
1654388375.3,286047000.8,N
1654388395.2,286046998.6,N
1654388415.0,286046996.9,N
1654388415.9,286046996.9,N
1654388435.8,286046999.0,N
1654388455.6,286047001.0,N
1654388475.4,286047001.0,N
1654388495.3,286046998.7,N
1654388515.1,286046998.4,N
1654388535.8,286046998.4,N
1654388555.7,286047000.8,N
1654388575.5,286047001.1,N
1654388595.4,286047001.1,N
1654388615.2,286047000.8,N
1654388635.0,286047001.2,N
1654388635.9,286047001.2,N
1654388655.8,286047000.5,N
1654388675.6,286047000.8,N
1654388695.5,286046998.2,N
1654388715.3,286046999.0,N
1654388735.1,286046998.3,N
1654388755.9,286046998.2,N
1654388775.7,286046998.3,N
1654388795.6,286046999.1,N
1654388815.4,286046999.1,N
1654388835.2,286046997.8,N
1654388855.1,286046996.9,N
1654388856.0,286046996.9,N
1654388875.8,286046996.5,N
1654388895.7,286046998.5,N
1654388915.5,286047001.1,N
1654388935.3,286047001.2,N
1654388955.2,286047001.1,N
1654388975.0,286047000.2,N
1654388975.9,286047000.2,N
1654388995.7,286047000.5,N
1654389015.6,286047000.6,N
1654389035.4,286046998.1,N
1654389055.3,286046998.1,N
1654389075.1,286046998.8,N
1654389095.8,286046998.4,N
1654389115.7,286046999.3,N
1654389135.5,286046998.7,N
1654389155.4,286046998.7,N
1654389175.2,286046999.1,N
1654389195.0,286046996.8,N
1654389195.9,286046996.8,N
1654389215.8,286046998.9,N
1654389235.6,286046998.5,N
1654389255.4,286047000.7,N
1654389275.3,286047000.6,N
1654389295.1,286046998.6,N
1654389315.9,286046998.1,N
1654389335.7,286047001.2,N
1654389355.5,286046998.6,N
1654389375.4,286047001.1,N
1654389395.2,286047000.9,N
1654389415.0,286047000.3,N
1654389415.9,286047000.3,N
1654389435.8,286047000.0,N
1654389455.6,286047001.1,N
1654389475.5,286046998.3,N
1654389495.3,286046999.6,N
1654389515.1,286046999.2,N
1654389535.9,286046997.1,N
1654389555.7,286046999.1,N
1654389575.5,286046999.4,N
1654389595.4,286046998.8,N
1654389615.2,286046996.5,N
1654389635.1,286046997.0,N
1654389636.0,286046997.0,N
1654389655.8,286046998.8,N
1654389675.6,286046998.4,N
1654389695.5,286046999.2,N
1654389715.3,286046997.0,N
1654389735.2,286046996.5,N
1654389755.9,286046998.8,N
1654389775.7,286046998.4,N
1654389795.6,286046997.1,N
1654389815.4,286046997.4,N
1654389835.2,286046997.4,N
1654389855.1,286046997.7,N
1654389856.0,286046997.7,N
1654389875.8,286046997.1,N
1654389895.7,286046996.8,N
1654389915.5,286046997.0,N
1654389935.4,286046994.9,Y
1654389955.2,286046999.0,P
1654389975.0,286046999.2,N
1654389975.9,286046999.2,N
1654389995.8,286046999.6,N
1654390015.6,286046996.5,Y
1654390035.4,286046998.1,P
1654390055.3,286047000.7,N
1654390075.1,286047000.9,N
1654390095.9,286047001.0,N
1654390115.7,286047000.3,N
1654390135.5,286047001.2,N
1654390155.4,286047000.5,N
1654390175.2,286047001.8,N
1654390195.0,286046999.9,N
1654390196.0,286046999.9,N
1654390215.8,286047002.8,N
1654390235.6,286046999.8,N
1654390255.5,286047002.8,N
1654390275.3,286046999.9,N
1654390295.1,286047000.9,N
1654390315.9,286047000.3,N
1654390335.7,286047000.0,N
1654390355.6,286046998.6,N
1654390375.4,286047000.5,N
1654390395.2,286046998.3,N
1654390415.1,286047000.7,N
1654390416.0,286047000.7,N
1654390435.8,286046999.0,N
1654390455.6,286046998.6,N
1654390475.5,286046999.0,N
1654390495.3,286046998.9,N
1654390515.2,286046999.4,N
1654390535.9,286046998.4,N
1654390555.7,286046999.4,N
1654390575.6,286046996.7,N
1654390595.4,286046997.1,N
1654390615.2,286046996.6,N
1654390635.1,286046996.8,N
1654390636.0,286046996.8,N
1654390655.8,286046999.3,N
1654390675.7,286047000.8,N
1654390695.5,286047000.5,N
1654390715.3,286047001.0,N
1654390735.2,286047001.0,N
1654390755.0,286047001.0,N
1654390755.9,286047001.0,N
1654390775.7,286047000.4,N
1654390795.6,286047000.3,N
